Weather History for Benton Harbor, MI

Change the Weather History Date:

Thursday, November 1, 2012

  Actual Average Record
Temperature  
Mean Temperature 44 °F -  
Max Temperature 48 °F 59 °F 82 °F (1950)
Min Temperature 41 °F 42 °F 21 °F (1954)
Degree Days  
Heating Degree Days 20    
Moisture  
Dew Point 32 °F    
Average Humidity 62    
Maximum Humidity 76    
Minimum Humidity 47    
Precipitation  
Precipitation 0.00 in - - ()
Sea Level Pressure  
Sea Level Pressure 29.83 in    
Wind  
Wind Speed 8 mph (NW)    
Max Wind Speed 16 mph    
Max Gust Speed 26 mph    
Visibility 10 miles    
Events      
Averages and records for this station are not official NWS values.
T = Trace of Precipitation, MM = Missing Value Source: NWS Daily Summary

Daily Weather History Graph

Daily Weather History Graph

Search for Another Location

Airport:

Trip Planner

Search our weather history database for the weather conditions in past years. The results will help you decide how hot, cold, wet, or windy it might be!

Date:

Astronomy

Nov. 01, 2012 Rise Set
Actual Time 8:19 AM EDT 6:38 PM EDT
Civil Twilight 7:50 AM EDT 7:07 PM EDT
Nautical Twilight 7:16 AM EDT 7:40 PM EDT
Astronomical Twilight 6:44 AM EDT 8:13 PM EDT
Moon 8:33 PM EDT (11/1) 10:53 AM EDT (11/1)
Length of Visible Light 11h 17m
Length of Day
10h 19m
Waning Gibbous, 93% of the Moon is Illuminated
Nov 1
Waning Gibbous
Nov 6
Last Quarter
Nov 13
New
Nov 20
First Quarter
Nov 28
Full

Hourly Weather History & Observations

Time (EDT) Temp. Windchill Dew Point Humidity Pressure Visibility Wind Dir Wind Speed Gust Speed Precip Events Conditions
12:53 AM 45.0 °F 40.1 °F 34.0 °F 65% 29.80 in 10.0 mi NW 9.2 mph 20.7 mph N/A   Overcast
1:53 AM 45.0 °F 39.3 °F 30.9 °F 58% 29.79 in 10.0 mi NW 11.5 mph 20.7 mph N/A   Clear
2:53 AM 44.1 °F 40.1 °F 28.9 °F 55% 29.80 in 10.0 mi Variable 6.9 mph 16.1 mph N/A   Clear
3:53 AM 42.1 °F 37.7 °F 28.9 °F 60% 29.80 in 10.0 mi Variable 6.9 mph - N/A   Clear
4:53 AM 41.0 °F 36.4 °F 33.1 °F 73% 29.80 in 10.0 mi Variable 6.9 mph - N/A   Partly Cloudy
5:18 AM 41.0 °F 37.1 °F 32.0 °F 70% 29.79 in 10.0 mi Variable 5.8 mph - N/A   Mostly Cloudy
5:53 AM 41.0 °F 35.8 °F 33.1 °F 73% 29.80 in 10.0 mi NNW 8.1 mph - N/A   Mostly Cloudy
6:53 AM 41.0 °F 37.1 °F 33.1 °F 73% 29.81 in 10.0 mi Variable 5.8 mph 20.7 mph N/A   Mostly Cloudy
7:53 AM 41.0 °F 37.1 °F 34.0 °F 76% 29.81 in 10.0 mi NW 5.8 mph - N/A   Mostly Cloudy
8:09 AM 41.0 °F 35.8 °F 33.8 °F 76% 29.80 in 10.0 mi NW 8.1 mph - N/A   Overcast
8:42 AM 42.8 °F 37.5 °F 33.8 °F 70% 29.81 in 10.0 mi NNW 9.2 mph - N/A   Mostly Cloudy
8:53 AM 41.0 °F 36.4 °F 34.0 °F 76% 29.83 in 10.0 mi NW 6.9 mph 16.1 mph N/A   Mostly Cloudy
9:08 AM 42.8 °F 37.0 °F 33.8 °F 70% 29.82 in 10.0 mi WNW 10.4 mph - N/A   Scattered Clouds
9:53 AM 43.0 °F 37.2 °F 32.0 °F 65% 29.84 in 10.0 mi WNW 10.4 mph 16.1 mph N/A   Mostly Cloudy
10:53 AM 44.1 °F 39.0 °F 30.9 °F 60% 29.84 in 10.0 mi WNW 9.2 mph 19.6 mph N/A   Overcast
11:53 AM 46.0 °F 39.3 °F 30.0 °F 54% 29.85 in 10.0 mi WNW 16.1 mph 26.5 mph N/A   Clear
12:53 PM 46.0 °F 41.4 °F 30.0 °F 54% 29.85 in 10.0 mi WNW 9.2 mph 17.3 mph N/A   Overcast
1:53 PM 46.0 °F 41.4 °F 30.0 °F 54% 29.83 in 10.0 mi NW 9.2 mph - N/A   Mostly Cloudy
2:53 PM 48.0 °F - 30.9 °F 52% 29.82 in 10.0 mi NW 8.1 mph 18.4 mph N/A   Partly Cloudy
3:53 PM 46.0 °F 41.0 °F 30.0 °F 54% 29.83 in 10.0 mi WNW 10.4 mph 17.3 mph N/A   Overcast
4:53 PM 46.0 °F 41.4 °F 28.0 °F 50% 29.82 in 10.0 mi NW 9.2 mph - N/A   Overcast
5:53 PM 46.0 °F 42.5 °F 27.0 °F 47% 29.83 in 10.0 mi NW 6.9 mph - N/A   Overcast
6:53 PM 45.0 °F 41.8 °F 32.0 °F 60% 29.84 in 10.0 mi NNW 5.8 mph - N/A   Overcast
7:53 PM 46.0 °F 44.8 °F 30.0 °F 54% 29.85 in 10.0 mi Variable 3.5 mph - N/A   Overcast
8:53 PM 45.0 °F 43.5 °F 30.0 °F 56% 29.85 in 10.0 mi Variable 3.5 mph - N/A   Overcast
9:53 PM 45.0 °F 43.5 °F 32.0 °F 60% 29.86 in 10.0 mi Variable 3.5 mph - N/A   Overcast
10:53 PM 45.0 °F 41.2 °F 33.1 °F 63% 29.87 in 10.0 mi Variable 6.9 mph - N/A   Overcast
11:53 PM 46.0 °F 41.9 °F 36.0 °F 68% 29.86 in 10.0 mi NNW 8.1 mph - N/A   Overcast